Curacao Island, Netherlands

3:17 PM AST on December 05, 2016 (GMT -0400)
Flamingo

Weather History for TNCB - December, 2011

Change the Weather History Date:

Wednesday, December 28, 2011

  Actual Average Record
Temperature  
Mean Temperature 82 °F -  
Max Temperature 86 °F 85 °F 89 °F (2006)
Min Temperature 77 °F 78 °F 75 °F (2004)
Cooling Degree Days 16    
Growing Degree Days 32 (Base 50)    
Moisture  
Dew Point 74 °F    
Average Humidity 76    
Maximum Humidity 89    
Minimum Humidity 63    
Precipitation  
Precipitation 0.00 in - - ()
Sea Level Pressure  
Sea Level Pressure 29.98 in    
Wind  
Wind Speed 7 mph ()    
Max Wind Speed 20 mph    
Max Gust Speed -    
Visibility 6.2 miles    
Events      
Averages and records for this station are not official NWS values.
T = Trace of Precipitation, MM = Missing Value Source: Averaged Metar Reports

Daily Weather History Graph

Daily Weather History Graph

Search for Another Location

Airport or City:

Trip Planner

Search our weather history database for the weather conditions in past years. The results will help you decide how hot, cold, wet, or windy it might be!

Date:

Astronomy

Dec. 28, 2011 Rise Set
Actual Time 6:51 AM AST 6:17 PM AST
Civil Twilight 6:28 AM AST 6:40 PM AST
Nautical Twilight 6:02 AM AST 7:06 PM AST
Astronomical Twilight 5:36 AM AST 7:33 PM AST
Moon 9:55 AM AST (12/28) 10:04 PM AST (12/28)
Length of Visible Light 12h 11m
Length of Day
11h 25m
Waxing Crescent, 17% of the Moon is Illuminated
Dec 28
Waxing Crescent
Jan 1
First Quarter
Jan 9
Full
Jan 16
Last Quarter
Jan 23
New

Hourly Weather History & Observations

Time (AST) Temp. Heat Index Dew Point Humidity Pressure Visibility Wind Dir Wind Speed Gust Speed Precip Events Conditions
12:00 AM 78.8 °F - 75.2 °F 89% 29.98 in - North - - N/A   Unknown
2:00 AM 78.8 °F - 71.6 °F 78% 29.98 in - Calm Calm - N/A   Unknown
5:00 AM 78.8 °F - 73.4 °F 83% 29.98 in - Calm Calm - N/A   Unknown
6:00 AM 78.8 °F - 73.4 °F 83% 29.98 in - Calm Calm - N/A   Unknown
7:00 AM 78.8 °F - 73.4 °F 83% 29.98 in - Calm Calm - N/A   Unknown
8:00 AM 80 °F - 74 °F 77%  in - Calm Calm - -   Clear
9:00 AM 82.4 °F 88.2 °F 73.4 °F 74% 30.04 in 6.2 mi East 16.1 mph - N/A   Mostly Cloudy
10:00 AM 82.4 °F 89.5 °F 75.2 °F 79% 30.04 in - North - - N/A   Unknown
11:00 AM 83 °F - 75 °F 70% 30.04 in 22 mi East 18.4 mph - -   Partly Cloudy
11:00 AM 82.4 °F 89.5 °F 75.2 °F 79% 30.01 in 6.2 mi East 18.4 mph - N/A   Scattered Clouds
12:00 PM 86.0 °F 95.1 °F 75.2 °F 70% 30.01 in 6.2 mi East 17.3 mph - N/A   Scattered Clouds
1:00 PM 84.2 °F 90.9 °F 73.4 °F 70% 29.98 in - North - - N/A   Unknown
2:00 PM 85 °F - 74 °F 63% 29.97 in 22 mi East 19.6 mph - -   Partly Cloudy
2:00 PM 84.2 °F 90.9 °F 73.4 °F 70% 29.95 in 6.2 mi East 19.6 mph - N/A   Scattered Clouds
3:00 PM 86.0 °F 95.1 °F 75.2 °F 70% 29.92 in 6.2 mi East 18.4 mph - N/A   Scattered Clouds
4:00 PM 84.2 °F 92.3 °F 75.2 °F 74% 29.92 in 6.2 mi East 18.4 mph - N/A   Scattered Clouds
5:00 PM 84.2 °F 90.9 °F 73.4 °F 70% 29.92 in 6.2 mi East 19.6 mph - N/A   Scattered Clouds
6:00 PM 80.6 °F 85.4 °F 73.4 °F 79% 29.92 in - North - - N/A   Scattered Clouds
7:00 PM 80.6 °F 85.4 °F 73.4 °F 79% 29.95 in 6.2 mi East 13.8 mph - N/A   Partly Cloudy
8:00 PM 80 °F - 72 °F 72% 29.97 in 22 mi East 13.8 mph - -   Scattered Clouds
8:00 PM 80.6 °F 85.4 °F 73.4 °F 79% 29.95 in 6.2 mi East 13.8 mph - N/A   Partly Cloudy
9:00 PM 80.6 °F 84.6 °F 71.6 °F 74% 29.98 in 6.2 mi Calm Calm - N/A   Partly Cloudy
10:00 PM 80.6 °F 85.4 °F 73.4 °F 79% 30.01 in 6.2 mi North - - N/A   Partly Cloudy
11:00 PM 80 °F - 74 °F 76%  in 22 mi Calm Calm - -   Clear
11:00 PM 80.6 °F 85.4 °F 73.4 °F 79% 29.98 in - North - - N/A   Unknown